QPF
0.00 0.00 0.00 0.00 0.00 0.00 0.00 0.00 0.00 0.00 0.00 0.00 0.00 0.00 0.00 0.00 0.00 0.00 0.00 0.00 0.00 0.00 0.00 0.00 0.00 0.00 0.00 0.00 0.00 0.00 0.00 0.00 0.00 0.00 0.00 0.00 0.00 0.00 0.00 0.00 0.00 0.00 0.00 0.00 0.00 0.00 0.00 0.00 0.00
0.00 0.00 0.00 0.00 0.00 0.00 0.00 0.00 0.00 0.00 0.00 0.00 0.00 0.00 0.00 0.00 0.00 0.00 0.00 0.00 0.00 0.00 0.00 0.00 0.00 0.00 0.00 0.00 0.00 0.00 0.00 0.00 0.00 0.00 0.00 0.00 0.00 0.00 0.00 0.00 0.00 0.00 0.00 0.00 0.00 0.00 0.00 0.00 0.00
0.00 0.00 0.00 0.00 0.00 0.00 0.00 0.00 0.00 0.00 0.00 0.00 0.00 0.00 0.00 0.00 0.00 0.00 0.00 0.00 0.00 0.00 0.00 0.00 0.00 0.00 0.00 0.00 0.00 0.00 0.00 0.00 0.00 0.00 0.00 0.00 0.00 0.00 0.00 0.00 0.00 0.00 0.00 0.00 0.00 0.00 0.00 0.00 0.00
0.00 0.00 0.00 0.00 0.00 0.00 0.00 0.00 0.00 0.00 0.00 0.00 0.00 0.00 0.00 0.00 0.00 0.00 0.00 0.00 0.00 0.00 0.00 0.00 0.00 0.00 0.00 0.00 0.00 0.00 0.00 0.00 0.00 0.00 0.00 0.00 0.00 0.00 0.00 0.00 0.00 0.00 0.00 0.00 0.00 0.00 0.00 0.00 0.00
0.00 0.00 0.00 0.00 0.00 0.00 0.00 0.00 0.00 0.00 0.00 0.00 0.00 0.00 0.00 0.00 0.00 0.00 0.00 0.00 0.00 0.00 0.00 0.00 0.00 0.00 0.00 0.00 0.00 0.00 0.00 0.00 0.00 0.00 0.00 0.00 0.00 0.00 0.00 0.00 0.00 0.00 0.00 0.00 0.00 0.00 0.00 0.00 0.00
0.00 0.00 0.00 0.00 0.00 0.00 0.00 0.00 0.00 0.00 0.00 0.00 0.00 0.00 0.00 0.00 0.00 0.00 0.00 0.00 0.00 0.00 0.00 0.00 0.00 0.00 0.00 0.00 0.00 0.00 0.00 0.00 0.00 0.00 0.00 0.00 0.00 0.00 0.00 0.00 0.00 0.00 0.00 0.00 0.00 0.00 0.00 0.00 0.00
0.00 0.00 0.00 0.00 0.00 0.00 0.00 0.00 0.00 0.00 0.00 0.00 0.00 0.00 0.00 0.00 0.00 0.00 0.00 0.00 0.00 0.00 0.00 0.00 0.00 0.00 0.00 0.00 0.00 0.00 0.00 0.00 0.00 0.00 0.00 0.00 0.00 0.00 0.00 0.00 0.00 0.00 0.00 0.00 0.00 0.00 0.00 0.00 0.00
0.00 0.00 0.00 0.00 0.00 0.00 0.00 0.00 0.00 0.00 0.00 0.00 0.00 0.00 0.00 0.00 0.00 0.00 0.00 0.00 0.00 0.00 0.00 0.00 0.00 0.00 0.00 0.00 0.00 0.00 0.00 0.00 0.00 0.00 0.00 0.00 0.00 0.00 0.00 0.00 0.00 0.00 0.00 0.00 0.00 0.00 0.00 0.00 0.00
0.00 0.00 0.00 0.00 0.00 0.00 0.00 0.00 0.00 0.00 0.00 0.00 0.00 0.00 0.00 0.00 0.00 0.00 0.00 0.00 0.00 0.00 0.00 0.00 0.00 0.00 0.00 0.00 0.00 0.00 0.00 0.00 0.00 0.00 0.00 0.00 0.00 0.00 0.00 0.00 0.00 0.00 0.00 0.00 0.00 0.00 0.00 0.00 0.00
0.00 0.00 0.00 0.00 0.00 0.00 0.00 0.00 0.00 0.00 0.00 0.00 0.00 0.00 0.00 0.00 0.00 0.00 0.00 0.00 0.00 0.00 0.00 0.00 0.00 0.00 0.00 0.00 0.00 0.00 0.00 0.00 0.00 0.00 0.00 0.00 0.00 0.00 0.00 0.00 0.00 0.00 0.00 0.00 0.00 0.00 0.00 0.00 0.00
0.00 0.00 0.00 0.00 0.00 0.00 0.00 0.00 0.00 0.00 0.00 0.00 0.00 0.00 0.00 0.00 0.00 0.00 0.00 0.00 0.00 0.00 0.00 0.00 0.00 0.00 0.00 0.00 0.00 0.00 0.00 0.00 0.00 0.00 0.00 0.00 0.00 0.00 0.00 0.00 0.00 0.00 0.00 0.00 0.00 0.00 0.00 0.00 0.00
0.00 0.00 0.00 0.00 0.00 0.00 0.00 0.00 0.00 0.00 0.00 0.00 0.00 0.00 0.00 0.00 0.00 0.00 0.00 0.00 0.00 0.00 0.00 0.00 0.00 0.00 0.00 0.00 0.00 0.00 0.00 0.00 0.00 0.00 0.00 0.00 0.00 0.00 0.00 0.00 0.00 0.00 0.00 0.00 0.00 0.00 0.00 0.00 0.00
0.00 0.00 0.00 0.00 0.00 0.00 0.00 0.00 0.00 0.00 0.00 0.00 0.00 0.00 0.00 0.00 0.00 0.00 0.00 0.00 0.00 0.00 0.00 0.00 0.00 0.00 0.00 0.00 0.00 0.00 0.00 0.00 0.00 0.00 0.00 0.00 0.00 0.00 0.00 0.00 0.00 0.00 0.00 0.00 0.00 0.00 0.00 0.00 0.00
0.00 0.00 0.00 0.00 0.00 0.00 0.00 0.00 0.00 0.00 0.00 0.00 0.00 0.00 0.00 0.00 0.00 0.00 0.00 0.00 0.00 0.00 0.00 0.00 0.00 0.00 0.00 0.00 0.00 0.00 0.00 0.00 0.00 0.00 0.00 0.00 0.00 0.00 0.00 0.00 0.00 0.00 0.00 0.00 0.00 0.00 0.00 0.00 0.00
0.00 0.00 0.00 0.00 0.00 0.00 0.00 0.00 0.00 0.00 0.00 0.00 0.00 0.00 0.00 0.00 0.00 0.00 0.00 0.00 0.00 0.00 0.00 0.00 0.00 0.00 0.00 0.00 0.00 0.00 0.00 0.00 0.00 0.00 0.00 0.00 0.00 0.00 0.00 0.00 0.00 0.00 0.00 0.00 0.00 0.00 0.00 0.00 0.00
0.00 0.00 0.00 0.00 0.00 0.00 0.00 0.00 0.00 0.00 0.00 0.00 0.00 0.00 0.00 0.00 0.00 0.00 0.00 0.00 0.00 0.00 0.00 0.00 0.00 0.00 0.00 0.00 0.00 0.00 0.00 0.00 0.00 0.00 0.00 0.00 0.00 0.00 0.00 0.00 0.00 0.00 0.00 0.00 0.00 0.00 0.00 0.01 0.00
0.00 0.00 0.00 0.00 0.00 0.00 0.00 0.00 0.00 0.00 0.00 0.00 0.00 0.00 0.00 0.00 0.00 0.00 0.00 0.00 0.00 0.00 0.00 0.00 0.00 0.00 0.00 0.00 0.00 0.00 0.00 0.00 0.00 0.00 0.00 0.00 0.01 0.02 0.00 0.00 0.00 0.00 0.00 0.00 0.00 0.01 0.03 0.01 0.02
0.00 0.00 0.00 0.00 0.00 0.00 0.00 0.00 0.00 0.00 0.00 0.00 0.00 0.00 0.00 0.00 0.00 0.00 0.00 0.00 0.00 0.00 0.00 0.00 0.00 0.00 0.00 0.00 0.00 0.00 0.00 0.00 0.00 0.00 0.02 0.03 0.00 0.02 0.01 0.00 0.00 0.00 0.00 0.02 0.03 0.06 0.05 0.02 0.00
0.00 0.00 0.00 0.00 0.00 0.00 0.00 0.00 0.00 0.00 0.00 0.00 0.00 0.00 0.00 0.00 0.00 0.00 0.00 0.00 0.00 0.00 0.00 0.00 0.00 0.00 0.00 0.00 0.00 0.00 0.00 0.00 0.00 0.00 0.00 0.05 0.03 0.02 0.00 0.00 0.00 0.00 0.00 0.06 0.06 0.07 0.07 0.02 0.02
0.00 0.00 0.00 0.00 0.00 0.00 0.00 0.00 0.00 0.00 0.00 0.00 0.00 0.00 0.00 0.00 0.00 0.00 0.00 0.00 0.00 0.00 0.00 0.00 0.00 0.00 0.00 0.00 0.00 0.00 0.00 0.00 0.00 0.00 0.00 0.00 0.00 0.00 0.00 0.00 0.01 0.01 0.07 0.13 0.08 0.08 0.05 0.02 0.04
0.00 0.00 0.00 0.00 0.00 0.00 0.00 0.00 0.00 0.00 0.00 0.00 0.00 0.00 0.00 0.00 0.00 0.00 0.00 0.00 0.00 0.00 0.00 0.00 0.00 0.00 0.00 0.00 0.00 0.00 0.00 0.00 0.00 0.00 0.00 0.00 0.00 0.00 0.00 0.03 0.08 0.06 0.02 0.02 0.02 0.02 0.07 0.03 0.04
0.00 0.00 0.00 0.00 0.00 0.00 0.00 0.00 0.00 0.00 0.00 0.00 0.00 0.00 0.00 0.00 0.00 0.00 0.00 0.00 0.00 0.00 0.00 0.00 0.00 0.00 0.00 0.00 0.00 0.00 0.00 0.00 0.00 0.00 0.00 0.00 0.00 0.00 0.00 0.06 0.13 0.06 0.01 0.00 0.04 0.01 0.01 0.00 0.01
0.00 0.00 0.00 0.00 0.00 0.00 0.00 0.00 0.00 0.00 0.00 0.00 0.00 0.00 0.00 0.00 0.00 0.00 0.00 0.00 0.00 0.00 0.00 0.00 0.00 0.00 0.00 0.00 0.00 0.00 0.00 0.00 0.00 0.00 0.00 0.00 0.00 0.00 0.01 0.02 0.09 0.03 0.00 0.00 0.00 0.00 0.00 0.01 0.02
0.00 0.00 0.00 0.00 0.00 0.00 0.00 0.00 0.00 0.00 0.00 0.00 0.00 0.00 0.00 0.00 0.00 0.00 0.00 0.00 0.00 0.00 0.00 0.00 0.00 0.00 0.00 0.00 0.00 0.00 0.00 0.00 0.00 0.00 0.00 0.00 0.01 0.00 0.00 0.04 0.11 0.01 0.00 0.00 0.00 0.00 0.00 0.04 0.02
0.00 0.00 0.00 0.00 0.00 0.00 0.00 0.00 0.00 0.00 0.00 0.00 0.00 0.00 0.00 0.00 0.00 0.00 0.00 0.00 0.00 0.00 0.00 0.00 0.00 0.00 0.00 0.00 0.00 0.00 0.00 0.00 0.00 0.00 0.00 0.00 0.02 0.00 0.00 0.00 0.01 0.00 0.00 0.00 0.01 0.04 0.00 0.00 0.00
0.00 0.00 0.00 0.00 0.00 0.00 0.00 0.00 0.00 0.00 0.00 0.00 0.00 0.00 0.00 0.00 0.00 0.00 0.00 0.00 0.00 0.00 0.00 0.00 0.00 0.00 0.00 0.00 0.00 0.00 0.00 0.00 0.00 0.00 0.00 0.00 0.00 0.00 0.00 0.00 0.00 0.00 0.00 0.00 0.00 0.00 0.00 0.00 0.04
0.00 0.00 0.00 0.00 0.00 0.00 0.00 0.00 0.00 0.00 0.00 0.00 0.00 0.00 0.00 0.00 0.00 0.00 0.00 0.00 0.00 0.00 0.00 0.00 0.00 0.00 0.00 0.00 0.00 0.00 0.00 0.00 0.00 0.00 0.00 0.00 0.00 0.00 0.00 0.00 0.00 0.00 0.00 0.00 0.00 0.00 0.00 0.00 0.00
0.00 0.00 0.00 0.00 0.00 0.00 0.00 0.00 0.00 0.00 0.00 0.00 0.00 0.00 0.00 0.00 0.00 0.00 0.00 0.00 0.00 0.00 0.00 0.00 0.00 0.00 0.00 0.00 0.00 0.00 0.00 0.00 0.00 0.00 0.00 0.00 0.00 0.00 0.00 0.00 0.00 0.00 0.00 0.00 0.00 0.00 0.00 0.00 0.00
0.00 0.00 0.00 0.00 0.00 0.00 0.00 0.00 0.00 0.00 0.00 0.00 0.00 0.00 0.00 0.00 0.00 0.00 0.00 0.00 0.00 0.00 0.00 0.00 0.00 0.00 0.00 0.00 0.00 0.00 0.00 0.00 0.00 0.00 0.00 0.00 0.00 0.00 0.00 0.00 0.00 0.00 0.00 0.00 0.00 0.00 0.00 0.00 0.00
0.00 0.00 0.00 0.00 0.00 0.00 0.00 0.00 0.00 0.00 0.00 0.00 0.00 0.00 0.00 0.00 0.00 0.00 0.00 0.00 0.00 0.00 0.00 0.00 0.00 0.00 0.00 0.00 0.00 0.00 0.00 0.00 0.00 0.00 0.00 0.00 0.00 0.00 0.00 0.00 0.00 0.00 0.00 0.00 0.00 0.00 0.00 0.00 0.00
MSLP
1011.29 1011.60 1012.06 1012.09 1012.80 1012.32 1010.97 1009.01 1007.20 1005.85 1004.68 1003.64 1003.22 1003.79 1003.68 1004.33 1004.92 1005.94 1004.97 1005.53 1006.00 1006.79 1007.74 1008.41 1008.89 1009.18 1009.46 1009.77 1010.13 1010.53 1010.78 1011.14 1011.43 1011.74 1012.04 1012.27 1012.51 1012.63 1012.87 1012.96 1013.12 1013.22 1013.34 1013.53 1013.83 1013.86 1013.76 1013.78 1013.95
1011.01 1011.54 1011.92 1012.12 1012.21 1011.62 1009.69 1007.91 1006.26 1005.18 1004.23 1002.98 1002.78 1003.06 1003.79 1004.25 1003.96 1004.72 1005.56 1005.90 1005.82 1006.50 1007.42 1008.19 1008.67 1009.10 1009.52 1009.75 1009.98 1010.39 1010.59 1010.96 1011.28 1011.66 1011.92 1012.20 1012.37 1012.51 1012.70 1012.95 1013.11 1013.09 1013.22 1013.40 1013.72 1013.75 1013.64 1013.61 1013.79
1010.88 1011.05 1011.88 1011.93 1011.54 1010.32 1008.80 1007.16 1005.52 1004.61 1003.78 1003.41 1003.27 1002.94 1003.58 1004.17 1004.27 1004.05 1004.49 1005.52 1006.15 1006.92 1007.39 1007.98 1008.42 1008.90 1009.34 1009.64 1009.75 1010.23 1010.54 1010.75 1010.99 1011.35 1011.66 1011.92 1012.11 1012.31 1012.49 1012.72 1012.85 1012.89 1013.03 1013.26 1013.41 1013.52 1013.48 1013.41 1013.50
1011.02 1011.46 1011.85 1011.59 1010.69 1008.90 1007.31 1005.89 1005.33 1004.24 1003.64 1003.32 1002.97 1003.41 1003.62 1003.44 1003.65 1003.88 1004.91 1005.66 1006.16 1006.80 1007.10 1007.39 1007.83 1008.38 1008.79 1009.04 1009.22 1009.59 1010.09 1010.39 1010.61 1010.90 1011.34 1011.56 1011.71 1012.04 1012.26 1012.44 1012.60 1012.67 1012.75 1012.96 1013.14 1013.24 1013.22 1013.19 1013.28
1011.27 1011.70 1011.97 1011.17 1009.61 1007.63 1007.16 1005.86 1004.94 1004.55 1003.58 1003.08 1002.71 1003.20 1003.84 1003.74 1003.51 1004.11 1004.84 1005.40 1005.72 1006.59 1006.76 1006.82 1007.01 1007.44 1007.70 1008.23 1008.70 1009.03 1009.37 1009.65 1009.90 1010.35 1010.81 1011.19 1011.38 1011.79 1012.09 1012.21 1012.40 1012.51 1012.54 1012.72 1012.90 1012.96 1013.01 1013.06 1013.14
1011.73 1011.88 1011.93 1010.92 1009.03 1007.01 1006.77 1005.62 1004.70 1004.46 1003.61 1003.34 1003.34 1003.35 1003.83 1003.63 1003.77 1004.08 1004.56 1005.00 1005.24 1005.67 1006.19 1006.40 1006.55 1007.17 1007.92 1008.28 1008.62 1008.77 1009.00 1009.42 1009.59 1009.78 1010.19 1010.64 1011.03 1011.48 1011.81 1012.01 1012.17 1012.26 1012.29 1012.46 1012.72 1012.77 1012.78 1012.96 1013.10
1011.82 1012.13 1011.48 1010.34 1008.74 1006.76 1005.89 1004.96 1004.31 1003.51 1003.63 1003.02 1003.02 1003.64 1004.11 1004.10 1003.47 1003.78 1004.12 1004.52 1004.83 1005.43 1005.80 1006.26 1006.75 1007.22 1007.52 1007.79 1008.08 1008.38 1008.75 1009.16 1009.51 1009.77 1010.02 1010.22 1010.65 1011.08 1011.46 1011.66 1011.93 1011.95 1012.13 1012.20 1012.43 1012.56 1012.61 1012.78 1012.94
1011.28 1011.88 1011.49 1009.93 1008.60 1006.55 1005.64 1004.52 1003.90 1003.95 1002.92 1002.62 1002.76 1003.55 1004.04 1003.56 1003.53 1003.77 1003.77 1004.19 1004.75 1005.18 1005.66 1005.93 1006.11 1006.87 1007.22 1007.45 1007.64 1008.06 1008.48 1008.79 1008.98 1009.37 1010.04 1010.37 1010.38 1010.63 1011.01 1011.21 1011.49 1011.47 1011.72 1011.89 1012.08 1012.31 1012.46 1012.62 1012.77
1010.45 1011.39 1010.93 1009.42 1008.22 1006.16 1005.79 1005.02 1003.40 1003.62 1003.48 1002.78 1002.54 1002.62 1002.77 1002.79 1003.11 1003.77 1003.89 1004.62 1005.14 1005.20 1005.41 1006.11 1006.24 1006.45 1006.91 1007.22 1007.56 1007.80 1008.05 1008.43 1008.72 1009.02 1009.39 1010.02 1010.35 1010.40 1010.73 1010.93 1011.34 1011.50 1011.40 1011.54 1011.76 1012.02 1012.26 1012.50 1012.63
1010.23 1010.30 1009.48 1008.01 1007.20 1006.33 1005.98 1005.52 1004.00 1004.40 1004.00 1003.11 1002.60 1002.33 1002.18 1002.30 1002.72 1003.65 1003.94 1004.32 1004.46 1004.77 1004.88 1005.47 1005.92 1006.01 1006.42 1006.58 1007.05 1007.22 1007.62 1008.02 1008.26 1008.47 1009.02 1009.42 1009.87 1010.25 1010.44 1010.75 1010.95 1011.20 1011.17 1011.32 1011.56 1011.78 1012.06 1012.28 1012.50
1009.06 1008.51 1008.18 1007.32 1007.11 1006.66 1005.97 1005.37 1005.16 1004.73 1004.01 1003.35 1002.88 1002.64 1002.40 1002.32 1002.87 1003.34 1003.25 1003.07 1002.84 1003.11 1003.87 1004.51 1004.88 1005.13 1005.54 1006.04 1006.48 1006.80 1007.29 1007.59 1007.99 1008.13 1008.58 1009.05 1009.53 1010.01 1010.27 1010.65 1010.72 1010.89 1010.93 1011.24 1011.35 1011.66 1011.91 1012.14 1012.31
1008.36 1007.56 1007.52 1006.74 1006.48 1006.35 1005.54 1004.90 1004.49 1004.28 1003.82 1003.17 1002.57 1002.35 1002.33 1002.52 1002.81 1002.81 1002.76 1002.69 1002.46 1002.21 1002.81 1003.17 1003.77 1004.50 1004.93 1005.48 1005.70 1005.98 1006.52 1006.99 1007.37 1007.54 1008.07 1008.70 1009.25 1009.81 1010.13 1010.34 1010.23 1010.32 1010.61 1010.93 1011.22 1011.58 1011.78 1012.00 1012.06
1007.72 1007.34 1006.73 1006.32 1005.94 1005.64 1005.37 1004.82 1004.28 1003.27 1002.77 1002.48 1002.29 1002.06 1002.17 1002.30 1002.41 1002.21 1002.13 1001.93 1001.68 1001.85 1001.67 1002.09 1002.62 1003.51 1004.06 1004.58 1004.95 1005.42 1005.67 1006.10 1006.44 1007.08 1007.59 1008.10 1008.74 1009.23 1009.58 1009.76 1009.85 1010.02 1010.27 1010.67 1011.15 1011.43 1011.67 1011.84 1011.77
1007.10 1007.25 1006.54 1006.18 1005.66 1005.26 1005.06 1003.95 1003.64 1002.79 1002.34 1002.00 1001.74 1001.54 1001.44 1001.51 1001.72 1001.64 1001.58 1001.49 1001.57 1001.27 1001.21 1001.40 1001.77 1002.25 1003.02 1003.42 1003.87 1004.35 1004.91 1005.34 1005.83 1006.44 1006.91 1007.51 1007.94 1008.65 1008.99 1009.33 1009.59 1009.85 1009.92 1010.27 1010.65 1010.92 1011.25 1011.43 1011.56
1007.39 1007.34 1006.58 1005.55 1005.27 1004.71 1004.73 1003.11 1002.36 1002.29 1002.22 1001.91 1001.63 1001.54 1001.32 1001.15 1001.03 1001.16 1000.92 1000.92 1000.76 1000.54 1000.32 1000.77 1001.09 1001.55 1002.07 1002.39 1002.85 1003.58 1004.05 1004.83 1005.34 1006.01 1006.42 1006.93 1007.41 1007.88 1008.15 1008.61 1009.07 1009.28 1009.50 1009.90 1010.34 1010.70 1011.01 1011.14 1011.26
1007.76 1007.44 1006.31 1004.79 1004.88 1004.19 1005.16 1000.40 1001.86 1001.91 1001.79 1001.52 1001.37 1001.07 1000.72 1000.64 1000.44 1000.03 999.99 1000.11 999.84 999.90 1000.21 1000.14 1000.24 1000.88 1001.32 1001.74 1002.26 1002.83 1003.48 1004.17 1004.80 1005.42 1005.87 1006.41 1006.82 1007.23 1007.77 1008.22 1008.70 1008.82 1009.26 1009.86 1010.29 1010.62 1010.81 1011.01 1011.23
1007.86 1006.57 1005.49 1004.73 1004.57 1004.49 1004.39 999.36 1001.93 1001.90 1001.63 1001.34 1001.12 1000.59 1000.28 1000.04 999.77 999.61 999.31 999.21 999.27 999.28 999.41 999.75 1000.00 1000.29 1000.71 1001.45 1001.95 1002.53 1003.12 1003.76 1004.36 1005.00 1005.57 1005.95 1006.45 1006.87 1007.48 1007.98 1008.35 1008.44 1009.16 1009.67 1009.97 1010.25 1010.48 1010.79 1010.87
1007.49 1006.65 1004.79 1004.38 1004.73 1004.28 1003.75 1000.68 1001.83 1001.68 1001.43 1001.05 1000.50 999.96 999.81 999.47 999.25 998.79 998.50 998.40 998.37 998.82 998.94 999.36 999.60 1000.21 1000.73 1001.46 1002.00 1002.65 1003.29 1003.84 1004.27 1004.79 1005.36 1005.77 1006.13 1006.59 1007.26 1007.68 1008.02 1008.40 1008.96 1009.40 1009.76 1010.10 1010.18 1010.25 1010.36
1006.76 1006.21 1005.24 1004.99 1004.52 1004.17 1003.32 1002.02 1001.51 1001.11 1000.96 1000.35 999.74 999.51 999.09 998.74 998.15 998.01 997.97 998.17 998.44 998.63 998.91 999.05 999.59 1000.39 1000.66 1001.50 1002.26 1002.87 1003.46 1004.12 1004.61 1004.87 1005.21 1005.80 1006.14 1006.67 1007.02 1007.43 1007.78 1008.25 1008.73 1008.95 1009.25 1009.57 1009.87 1009.93 1010.05
1007.35 1006.66 1005.70 1005.50 1004.65 1003.98 1003.47 1002.34 1001.21 1000.74 1000.32 999.75 999.20 998.96 998.70 998.54 998.01 997.69 997.83 998.33 998.09 998.31 998.67 999.17 999.61 999.98 1000.49 1001.29 1002.04 1002.63 1003.43 1004.09 1004.32 1004.74 1005.13 1005.37 1005.82 1006.23 1006.73 1007.08 1007.55 1008.01 1008.44 1008.71 1008.94 1009.21 1009.48 1009.54 1009.89
1006.40 1006.38 1006.36 1006.05 1005.24 1003.76 1004.04 1002.97 1001.66 1000.10 999.79 999.13 998.69 998.17 998.03 997.84 997.61 997.53 997.94 998.07 998.22 998.43 998.75 999.17 999.72 1000.02 1000.55 1001.25 1001.99 1002.95 1003.52 1004.07 1004.59 1004.97 1005.39 1005.60 1005.71 1006.06 1006.46 1006.92 1007.33 1007.64 1007.95 1008.16 1008.29 1008.71 1009.06 1009.41 1009.79
1006.05 1006.32 1006.08 1006.20 1006.41 1004.64 1004.86 1002.92 1001.62 999.51 998.38 998.20 998.02 997.66 997.73 997.23 996.84 997.07 997.50 998.18 998.14 998.53 998.95 999.26 999.84 1000.52 1000.74 1001.35 1002.19 1002.92 1003.76 1004.47 1004.70 1004.90 1005.18 1005.38 1005.67 1006.00 1006.32 1006.73 1007.11 1007.29 1007.70 1007.94 1008.15 1008.32 1008.73 1009.09 1009.61
1005.47 1006.19 1006.17 1006.41 1005.85 1005.71 1004.88 1004.61 998.06 999.35 997.70 997.60 997.19 997.14 996.61 996.16 996.77 996.71 996.89 997.54 998.25 998.75 999.19 999.67 1000.08 1000.78 1001.16 1001.66 1002.30 1003.04 1003.82 1004.29 1004.59 1004.93 1005.34 1005.63 1005.82 1005.97 1006.12 1006.52 1006.77 1007.09 1007.46 1007.66 1007.94 1008.21 1008.40 1008.69 1009.13
1006.09 1005.98 1006.23 1006.26 1006.20 1005.46 1004.34 1004.35 996.98 998.03 996.84 996.70 996.66 996.17 995.93 995.86 996.05 996.56 997.09 997.79 998.50 999.03 999.44 1000.00 1000.53 1001.22 1001.45 1002.06 1002.56 1003.11 1003.79 1004.45 1004.89 1005.34 1005.63 1005.85 1005.97 1006.04 1006.26 1006.49 1006.82 1007.00 1007.29 1007.54 1007.70 1007.83 1008.13 1008.51 1008.80
1006.22 1006.77 1006.84 1006.60 1006.00 1003.84 1003.86 1003.34 997.30 996.10 995.72 995.81 996.10 995.76 995.71 995.58 996.30 996.93 997.06 997.82 998.53 999.12 999.71 1000.29 1000.89 1001.64 1001.67 1002.19 1002.82 1003.30 1003.83 1004.35 1004.81 1005.32 1005.62 1005.87 1006.11 1006.28 1006.24 1006.37 1006.66 1006.83 1007.04 1007.29 1007.48 1007.68 1007.90 1008.10 1008.35
1005.81 1006.24 1006.18 1006.22 1005.36 1004.07 1003.56 1000.21 997.08 996.54 995.31 994.98 994.99 995.13 995.06 995.35 995.98 996.70 997.01 997.69 998.50 999.19 999.65 1000.54 1001.22 1001.72 1001.86 1002.41 1003.03 1003.43 1003.92 1004.44 1004.86 1005.25 1005.51 1005.72 1005.96 1006.02 1006.12 1006.32 1006.49 1006.66 1006.88 1007.09 1007.27 1007.48 1007.66 1007.75 1008.00
1005.57 1005.62 1005.95 1006.07 1005.03 1004.67 1001.82 999.32 997.41 995.83 995.08 994.75 994.44 994.57 994.59 995.16 995.83 996.59 997.33 997.94 998.60 999.35 999.89 1000.50 1001.20 1001.70 1002.04 1002.55 1003.05 1003.54 1003.96 1004.35 1004.75 1004.99 1005.16 1005.52 1005.75 1005.94 1006.15 1006.27 1006.47 1006.60 1006.74 1006.85 1007.07 1007.30 1007.45 1007.50 1007.68
1005.43 1005.56 1005.59 1005.76 1005.51 1004.26 1001.14 999.26 996.76 995.36 994.63 994.39 994.24 993.69 994.24 995.19 996.09 996.73 997.38 998.09 998.84 999.51 999.96 1000.62 1001.19 1001.71 1002.16 1002.62 1003.06 1003.58 1003.96 1004.12 1004.49 1004.91 1005.36 1005.55 1005.73 1005.88 1006.12 1006.33 1006.52 1006.62 1006.57 1006.68 1006.94 1007.20 1007.28 1007.46 1007.58
1005.47 1005.18 1005.41 1005.30 1004.82 1003.26 1001.27 997.71 995.95 995.00 994.32 993.99 993.39 992.66 993.62 994.72 995.71 996.50 997.37 998.16 998.93 999.66 1000.04 1000.80 1001.32 1001.84 1002.31 1002.69 1003.18 1003.61 1003.96 1004.18 1004.56 1005.08 1005.32 1005.53 1005.74 1005.88 1006.14 1006.32 1006.42 1006.56 1006.69 1006.77 1006.91 1007.09 1007.22 1007.45 1007.63
1005.64 1005.49 1005.62 1005.27 1004.12 1002.65 1000.87 996.47 995.08 994.72 994.02 993.76 993.57 993.26 993.59 994.21 995.37 996.26 997.30 998.01 998.94 999.54 1000.14 1000.83 1001.36 1001.91 1002.31 1002.71 1003.19 1003.66 1003.99 1004.37 1004.82 1005.13 1005.29 1005.48 1005.66 1005.95 1006.08 1006.29 1006.24 1006.46 1006.66 1006.76 1006.76 1007.01 1007.15 1007.38 1007.61
Thickness
5792 5792 5789 5785 5757 5753 5750 5772 5802 5802 5814 5834 5838 5824 5823 5828 5814 5789 5849 5848 5845 5837 5826 5816 5810 5807 5802 5797 5790 5783 5778 5772 5767 5762 5757 5753 5749 5745 5740 5737 5732 5730 5726 5721 5715 5714 5715 5714 5711
5792 5790 5784 5772 5746 5737 5753 5788 5796 5811 5825 5840 5843 5832 5818 5814 5845 5840 5834 5841 5843 5836 5823 5814 5808 5803 5798 5794 5789 5781 5776 5769 5763 5757 5752 5747 5745 5742 5739 5733 5729 5726 5722 5717 5711 5709 5709 5709 5706
5790 5791 5768 5756 5745 5743 5756 5793 5809 5819 5830 5827 5823 5836 5816 5818 5840 5844 5850 5845 5840 5830 5822 5814 5808 5801 5796 5791 5788 5780 5773 5767 5762 5755 5749 5744 5740 5737 5733 5729 5725 5723 5718 5712 5708 5704 5704 5705 5703
5780 5774 5766 5747 5748 5771 5785 5800 5808 5817 5824 5829 5824 5808 5824 5841 5841 5847 5841 5838 5833 5826 5820 5814 5808 5802 5796 5791 5787 5780 5772 5766 5761 5754 5747 5742 5739 5733 5728 5724 5720 5717 5714 5709 5705 5703 5701 5701 5699
5771 5760 5741 5744 5758 5783 5788 5799 5808 5804 5813 5819 5825 5807 5806 5831 5841 5838 5833 5834 5829 5823 5821 5819 5815 5810 5805 5794 5785 5779 5773 5766 5760 5754 5747 5741 5737 5730 5723 5719 5714 5712 5710 5706 5701 5700 5699 5698 5694
5747 5747 5728 5733 5759 5787 5787 5796 5806 5801 5806 5810 5807 5804 5808 5833 5833 5833 5831 5830 5831 5827 5822 5820 5816 5807 5797 5787 5778 5775 5769 5763 5759 5755 5749 5742 5735 5728 5722 5716 5711 5709 5707 5703 5698 5696 5695 5693 5690
5737 5727 5727 5746 5758 5775 5786 5802 5801 5803 5799 5809 5817 5789 5805 5816 5832 5833 5831 5828 5829 5823 5822 5818 5807 5800 5798 5790 5781 5774 5767 5761 5756 5751 5746 5742 5735 5728 5721 5717 5711 5707 5702 5699 5694 5692 5691 5688 5685
5738 5726 5724 5740 5750 5764 5783 5793 5803 5799 5801 5827 5824 5787 5788 5816 5830 5829 5827 5823 5819 5819 5815 5810 5806 5794 5789 5789 5782 5774 5766 5760 5756 5749 5741 5736 5734 5729 5722 5717 5711 5707 5701 5697 5692 5688 5686 5683 5680
5745 5706 5706 5732 5748 5771 5774 5780 5808 5810 5801 5812 5820 5814 5820 5828 5827 5820 5818 5807 5803 5807 5804 5797 5796 5792 5788 5785 5778 5772 5766 5759 5753 5747 5742 5735 5730 5726 5720 5715 5708 5703 5700 5695 5691 5686 5682 5678 5676
5721 5708 5723 5755 5765 5764 5767 5773 5789 5783 5784 5795 5803 5819 5831 5832 5820 5806 5805 5801 5800 5800 5801 5797 5791 5789 5786 5782 5775 5773 5765 5758 5752 5747 5740 5735 5730 5723 5718 5712 5707 5701 5697 5692 5688 5683 5678 5673 5671
5727 5719 5745 5755 5760 5764 5762 5764 5780 5772 5772 5790 5793 5806 5815 5820 5816 5806 5808 5811 5815 5815 5809 5802 5798 5796 5790 5784 5777 5771 5763 5756 5748 5745 5739 5733 5727 5719 5714 5709 5704 5699 5694 5688 5685 5680 5675 5670 5666
5713 5735 5740 5755 5759 5757 5759 5773 5767 5770 5776 5796 5805 5811 5813 5809 5810 5812 5810 5811 5814 5816 5809 5809 5805 5797 5791 5782 5776 5772 5764 5755 5749 5745 5738 5731 5725 5717 5712 5707 5703 5699 5693 5687 5683 5676 5672 5666 5663
5716 5727 5737 5745 5753 5756 5759 5752 5761 5773 5791 5803 5802 5805 5802 5804 5805 5809 5812 5814 5816 5810 5815 5809 5810 5800 5792 5785 5777 5771 5766 5758 5752 5744 5737 5730 5723 5716 5710 5706 5701 5696 5691 5684 5677 5672 5667 5663 5660
5719 5716 5728 5733 5737 5747 5742 5755 5761 5775 5795 5793 5797 5799 5802 5802 5802 5805 5807 5809 5807 5808 5809 5808 5809 5802 5794 5788 5780 5774 5767 5760 5753 5744 5737 5730 5723 5715 5709 5702 5697 5692 5687 5680 5673 5669 5664 5660 5657
5705 5693 5711 5726 5731 5734 5744 5739 5752 5780 5783 5781 5787 5790 5794 5797 5802 5803 5808 5804 5806 5808 5809 5805 5804 5800 5794 5789 5782 5775 5768 5759 5751 5743 5735 5728 5722 5716 5710 5702 5694 5689 5684 5677 5669 5664 5659 5656 5653
5681 5684 5683 5722 5729 5738 5725 5734 5766 5774 5772 5770 5775 5783 5792 5793 5799 5808 5808 5805 5806 5806 5801 5804 5803 5796 5792 5787 5781 5775 5767 5758 5751 5742 5735 5728 5722 5715 5708 5698 5690 5685 5678 5669 5661 5654 5650 5648 5644
5660 5667 5681 5703 5725 5722 5718 5742 5751 5764 5762 5758 5761 5773 5782 5789 5797 5798 5803 5805 5804 5803 5803 5800 5797 5794 5790 5781 5777 5770 5763 5755 5748 5740 5733 5726 5719 5712 5703 5694 5685 5679 5670 5662 5656 5650 5645 5641 5638
5651 5666 5690 5691 5704 5714 5710 5726 5738 5751 5753 5752 5762 5775 5779 5787 5791 5799 5803 5805 5806 5802 5803 5797 5793 5788 5782 5773 5769 5761 5753 5746 5742 5735 5727 5721 5713 5705 5695 5687 5680 5673 5664 5656 5650 5643 5640 5638 5636
5666 5666 5672 5681 5695 5696 5699 5710 5726 5742 5738 5745 5761 5769 5776 5783 5793 5799 5801 5799 5797 5796 5793 5791 5784 5779 5775 5766 5756 5749 5741 5736 5730 5726 5719 5712 5704 5695 5688 5680 5674 5667 5658 5651 5645 5640 5635 5633 5631
5639 5642 5653 5667 5686 5693 5695 5698 5720 5733 5737 5752 5763 5767 5774 5772 5781 5791 5792 5788 5793 5793 5788 5781 5778 5775 5770 5761 5752 5745 5737 5730 5725 5719 5713 5710 5702 5694 5685 5676 5668 5661 5654 5646 5640 5635 5631 5631 5626
5638 5636 5643 5647 5669 5690 5677 5669 5697 5732 5737 5752 5759 5769 5773 5772 5780 5786 5782 5782 5783 5782 5779 5776 5770 5767 5762 5755 5748 5738 5733 5725 5718 5711 5704 5700 5695 5689 5680 5671 5663 5655 5649 5643 5639 5633 5628 5624 5621
5618 5641 5647 5643 5639 5642 5673 5640 5687 5729 5742 5750 5755 5767 5762 5771 5783 5783 5780 5774 5776 5775 5771 5769 5763 5756 5754 5749 5741 5733 5724 5714 5711 5706 5700 5696 5690 5684 5678 5668 5657 5651 5643 5638 5634 5631 5627 5623 5617
5627 5633 5632 5635 5636 5636 5645 5626 5719 5720 5730 5740 5757 5755 5769 5784 5776 5780 5778 5775 5770 5767 5763 5759 5755 5749 5747 5742 5735 5727 5718 5711 5707 5701 5695 5688 5683 5679 5673 5664 5656 5647 5639 5635 5631 5627 5625 5623 5619
5619 5618 5621 5627 5623 5609 5647 5637 5718 5716 5735 5748 5751 5758 5770 5776 5779 5776 5771 5767 5761 5759 5754 5749 5745 5740 5740 5734 5729 5721 5713 5705 5698 5692 5686 5680 5675 5671 5666 5658 5651 5646 5638 5632 5630 5628 5626 5621 5619
5596 5590 5578 5585 5591 5625 5655 5639 5715 5733 5748 5747 5745 5757 5766 5773 5767 5763 5766 5760 5756 5751 5746 5741 5737 5732 5733 5728 5721 5714 5707 5700 5694 5687 5680 5674 5668 5664 5661 5657 5652 5647 5641 5635 5632 5630 5627 5625 5622
5578 5584 5578 5578 5587 5626 5648 5652 5704 5730 5754 5756 5761 5763 5770 5770 5764 5762 5761 5757 5751 5746 5743 5735 5731 5729 5727 5722 5714 5709 5702 5695 5690 5683 5676 5671 5666 5662 5659 5655 5652 5648 5644 5639 5636 5632 5629 5628 5626
5574 5575 5593 5588 5611 5604 5643 5675 5710 5734 5746 5751 5754 5759 5765 5763 5760 5757 5752 5749 5744 5740 5736 5733 5728 5725 5722 5716 5709 5703 5697 5692 5686 5681 5676 5670 5664 5660 5657 5654 5651 5648 5645 5642 5638 5635 5632 5631 5628
5569 5585 5574 5573 5578 5589 5636 5656 5682 5716 5734 5740 5744 5762 5761 5758 5754 5750 5747 5743 5739 5735 5733 5728 5725 5721 5716 5710 5705 5699 5694 5690 5684 5678 5671 5666 5662 5659 5655 5653 5650 5648 5647 5644 5641 5636 5634 5631 5629
5556 5568 5571 5577 5585 5601 5619 5656 5701 5721 5728 5736 5754 5766 5764 5759 5752 5748 5744 5740 5735 5730 5729 5723 5720 5715 5710 5705 5700 5694 5690 5686 5680 5674 5669 5665 5660 5657 5654 5652 5650 5648 5646 5644 5641 5638 5635 5632 5629
5549 5557 5558 5560 5584 5605 5631 5666 5713 5722 5726 5736 5742 5754 5762 5761 5753 5749 5742 5738 5730 5728 5724 5719 5715 5710 5705 5701 5697 5691 5686 5681 5675 5671 5667 5663 5659 5656 5653 5651 5651 5649 5646 5644 5642 5639 5635 5631 5628